Location: Ostrava
(49.8330°N, 18.2830°E)
Time: 17:21:15
(UTC+01:00)

Transit 2A - All Passes

Search period start: 24 February 2018 00:00
Search period end: 06 March 2018 00:00
Orbit: 594 x 965 km, 66.7° (Epoch: 24 February)

Date Brightness Start Highest point End Pass type
(mag) Time Alt. Az. Time Alt. Az. Time Alt. Az.
24 Feb - 00:35:40 10° NW 00:39:22 16° N 00:42:56 10° NNE visible
24 Feb - 02:21:12 10° NNW 02:25:00 17° NNE 02:28:35 10° NE visible
24 Feb - 04:04:32 10° NNW 04:09:54 39° NE 04:14:43 10° ESE visible
24 Feb - 05:47:59 10° NW 05:53:15 46° WSW 05:57:58 10° S visible
24 Feb - 18:51:28 10° SE 18:54:07 13° E 18:56:44 10° ENE visible
24 Feb - 20:30:03 10° SSW 20:36:19 62° ESE 20:42:23 10° NE visible
24 Feb - 22:14:03 10° WSW 22:19:57 38° NW 22:25:34 10° NNE night (unlit)
25 Feb - 00:00:51 10° WNW 00:04:52 18° NNW 00:08:43 10° NNE visible
25 Feb - 01:46:58 10° NNW 01:50:30 16° N 01:53:51 10° NE visible
25 Feb - 03:30:30 10° NNW 03:35:37 32° NE 03:40:15 10° E visible
25 Feb - 05:13:47 10° NW 05:19:17 64° WSW 05:24:11 10° SSE visible
25 Feb - 07:00:53 10° W 07:01:12 10° W 07:01:31 10° WSW daylight
25 Feb - 19:56:18 10° S 20:02:20 47° ESE 20:08:12 10° NE visible
25 Feb - 21:39:34 10° WSW 21:45:42 47° NW 21:51:33 10° NNE visible
25 Feb - 23:26:01 10° WNW 23:30:23 19° NNW 23:34:35 10° NNE night (unlit)
26 Feb - 01:12:37 10° NNW 01:15:58 15° N 01:19:10 10° NE visible
26 Feb - 02:56:28 10° NNW 03:01:16 26° NNE 03:05:40 10° E visible
26 Feb - 04:39:39 10° NW 04:45:16 87° SW 04:50:15 10° SSE visible
26 Feb - 06:24:34 10° WNW 06:27:30 15° WSW 06:30:19 10° SW daylight
26 Feb - 19:22:45 10° S 19:28:25 35° ESE 19:33:57 10° NE visible
26 Feb - 21:05:13 10° SW 21:11:31 60° NW 21:17:31 10° NNE visible
26 Feb - 22:51:11 10° WNW 22:55:57 22° NNW 23:00:30 10° NNE visible
27 Feb - 00:38:09 10° NNW 00:41:26 15° N 00:44:36 10° NE visible
27 Feb - 02:22:25 10° NNW 02:26:52 22° NNE 02:31:01 10° ENE visible
27 Feb - 04:05:34 10° NW 04:11:11 71° NE 04:16:10 10° SE visible
27 Feb - 05:49:46 10° WNW 05:53:46 22° WSW 05:57:28 10° SSW visible
27 Feb - 18:49:25 10° SSE 18:54:32 26° ESE 18:59:32 10° NE visible
27 Feb - 20:30:59 10° SW 20:37:22 76° NW 20:43:28 10° NE visible
27 Feb - 22:16:25 10° W 22:21:34 26° NNW 22:26:28 10° NNE visible
28 Feb - 00:03:32 10° NW 00:06:54 15° N 00:10:08 10° NNE visible
28 Feb - 01:48:20 10° NNW 01:52:27 19° NNE 01:56:18 10° ENE visible
28 Feb - 03:31:31 10° NNW 03:37:02 53° NE 03:41:57 10° ESE visible
28 Feb - 05:15:17 10° NW 05:19:57 30° WSW 05:24:12 10° S visible
28 Feb - 18:16:24 10° SSE 18:20:43 19° ESE 18:24:57 10° ENE visible
28 Feb - 19:56:53 10° SSW 20:03:17 85° ESE 20:09:24 10° NE visible
28 Feb - 21:41:44 10° W 21:47:12 30° NW 21:52:26 10° NNE visible
28 Feb - 23:28:48 10° NW 23:32:23 16° N 23:35:49 10° NNE visible
01 Mar - 01:14:13 10° NNW 01:17:59 17° NNE 01:21:33 10° ENE visible
01 Mar - 02:57:29 10° NNW 03:02:49 41° NE 03:07:37 10° ESE visible
01 Mar - 04:40:58 10° NW 04:46:05 42° WSW 04:50:40 10° S visible
01 Mar - 17:43:55 10° SE 17:46:58 14° ESE 17:49:57 10° ENE daylight
01 Mar - 19:22:57 10° SSW 19:29:14 66° ESE 19:35:17 10° NE visible
01 Mar - 21:07:07 10° WSW 21:12:55 36° NW 21:18:25 10° NNE visible
01 Mar - 22:54:00 10° NW 22:57:52 17° NNW 23:01:35 10° NNE visible
02 Mar - 00:40:00 10° NNW 00:43:29 16° N 00:46:49 10° NE visible
02 Mar - 02:23:27 10° NNW 02:28:33 33° NE 02:33:09 10° E visible
02 Mar - 04:06:45 10° NW 04:12:09 59° WSW 04:16:57 10° SSE visible
02 Mar - 18:49:10 10° S 18:55:15 50° ESE 19:01:07 10° NE visible
02 Mar - 20:32:36 10° WSW 20:38:40 45° NW 20:44:24 10° NNE visible
02 Mar - 22:19:10 10° WNW 22:23:23 19° NNW 22:27:26 10° NNE visible
03 Mar - 00:05:41 10° NNW 00:08:58 15° N 00:12:06 10° NE visible
03 Mar - 01:49:25 10° NNW 01:54:13 27° NNE 01:58:36 10° E visible
03 Mar - 03:32:37 10° NW 03:38:08 81° WSW 03:43:03 10° SSE visible
03 Mar - 05:17:48 10° WNW 05:20:17 14° WSW 05:22:41 10° SW visible
03 Mar - 18:15:33 10° S 18:21:18 37° ESE 18:26:52 10° NE visible
03 Mar - 19:58:13 10° SW 20:04:28 56° NW 20:10:23 10° NNE visible
03 Mar - 21:44:20 10° WNW 21:48:57 21° NNW 21:53:21 10° NNE visible
03 Mar - 23:31:14 10° NNW 23:34:26 15° N 23:37:30 10° NE visible
04 Mar - 01:15:23 10° NNW 01:19:50 23° NNE 01:23:58 10° E visible
04 Mar - 02:58:31 10° NW 03:04:04 75° NE 03:09:00 10° SE visible
04 Mar - 04:42:51 10° WNW 04:46:34 20° WSW 04:50:01 10° SSW visible
04 Mar - 17:42:10 10° SSE 17:47:25 28° ESE 17:52:32 10° NE daylight
04 Mar - 19:23:57 10° SW 19:30:18 72° NW 19:36:21 10° NE visible
04 Mar - 21:09:33 10° W 21:14:32 24° NNW 21:19:18 10° NNE visible
04 Mar - 22:56:39 10° NW 22:59:54 15° N 23:03:01 10° NNE visible
05 Mar - 00:41:19 10° NNW 00:45:26 20° NNE 00:49:15 10° ENE visible
05 Mar - 02:24:27 10° NNW 02:29:56 56° NE 02:34:49 10° SE night (unlit)
05 Mar - 04:08:18 10° NW 04:12:46 27° WSW 04:16:50 10° SSW night (unlit)
05 Mar - 17:09:04 10° SSE 17:13:35 21° ESE 17:18:00 10° ENE daylight
05 Mar - 18:49:49 10° SW 18:56:12 89° ESE 19:02:17 10° NE visible
05 Mar - 20:34:49 10° W 20:40:11 29° NW 20:45:17 10° NNE visible
05 Mar - 22:21:57 10° NW 22:25:23 15° N 22:28:40 10° NNE visible
